Weather History for KABE - December, 2014

Change the Weather History Date:

Tuesday, December 9, 2014

  Actual Average Record
Temperature  
Mean Temperature 37 °F 34 °F  
Max Temperature 44 °F 43 °F 66 °F (1980)
Min Temperature 30 °F 26 °F 7 °F (1989)
Degree Days  
Heating Degree Days 28 31  
Month to date heating degree days 261 264  
Since 1 July heating degree days 1396 1444  
Cooling Degree Days 0 0  
Month to date cooling degree days 0 0  
Year to date cooling degree days 807 757  
Moisture  
Dew Point 32 °F    
Average Humidity 79    
Maximum Humidity 89    
Minimum Humidity 69    
Precipitation  
Precipitation 1.06 in 0.13 in 1.51 in (1973)
Month to date precipitation 2.24 1.18  
Year to date precipitation 43.31 42.95  
Snow  
Snow T in 0.10 in 9.10 in (2005)
Month to date snowfall T 1.1  
Since 1 July snowfall 5.7 1.8  
Snow Depth 0.00 in    
Sea Level Pressure  
Sea Level Pressure 30.00 in    
Wind  
Wind Speed 11 mph (NNE)    
Max Wind Speed 20 mph    
Max Gust Speed 26 mph    
Visibility 8 miles    
Events Rain    
T = Trace of Precipitation, MM = Missing Value Source: NWS Daily Summary

Daily Weather History Graph

Daily Weather History Graph

Search for Another Location

Airport or City:

Trip Planner

Search our weather history database for the weather conditions in past years. The results will help you decide how hot, cold, wet, or windy it might be!

Date:

Astronomy

Dec. 09, 2014 Rise Set
Actual Time 7:13 AM EST 4:34 PM EST
Civil Twilight 6:43 AM EST 5:05 PM EST
Nautical Twilight 6:08 AM EST 5:39 PM EST
Astronomical Twilight 5:35 AM EST 6:12 PM EST
Moon 7:51 PM EST (12/9) 9:24 AM EST (12/9)
Length of Visible Light 10h 22m
Length of Day
9h 20m
Waning Gibbous, 90% of the Moon is Illuminated
Dec 9
Waning Gibbous
Dec 14
Last Quarter
Dec 21
New
Dec 28
First Quarter
Jan 4
Full

Hourly Weather History & Observations

Time (EST) Temp. Windchill Dew Point Humidity Pressure Visibility Wind Dir Wind Speed Gust Speed Precip Events Conditions
12:51 AM 30.9 °F 21.7 °F 24.1 °F 76% 30.29 in 10.0 mi NE 11.5 mph - N/A   Overcast
1:51 AM 32.0 °F 23.0 °F 25.0 °F 75% 30.28 in 10.0 mi NE 11.5 mph - N/A   Overcast
2:51 AM 32.0 °F 20.5 °F 27.0 °F 82% 30.25 in 10.0 mi ENE 18.4 mph - 0.00 in   Overcast
3:09 AM 32.0 °F 21.6 °F 28.4 °F 87% 30.23 in 7.0 mi ENE 15.0 mph 23.0 mph 0.00 in Rain Light Freezing Rain
3:51 AM 33.1 °F 23.9 °F 28.9 °F 85% 30.22 in 5.0 mi ENE 12.7 mph - 0.04 in Rain Light Freezing Rain
4:03 AM 33.8 °F 24.8 °F 28.4 °F 81% 30.19 in 4.0 mi ENE 12.7 mph - 0.04 in Rain Light Freezing Rain
4:13 AM 33.8 °F 25.3 °F 28.4 °F 81% 30.18 in 4.0 mi ENE 11.5 mph 20.7 mph 0.07 in Rain Light Freezing Rain
4:43 AM 33.8 °F 25.3 °F 30.2 °F 87% 30.17 in 5.0 mi NE 11.5 mph - 0.19 in Rain Light Freezing Rain
4:51 AM 33.1 °F 23.9 °F 30.0 °F 89% 30.18 in 6.0 mi ENE 12.7 mph - 0.20 in Rain Light Freezing Rain
5:12 AM 33.8 °F 24.3 °F 30.2 °F 87% 30.16 in 7.0 mi ENE 13.8 mph - 0.02 in Rain Light Freezing Rain
5:19 AM 33.8 °F 24.8 °F 30.2 °F 87% 30.16 in 5.0 mi ENE 12.7 mph - 0.05 in Rain Light Freezing Rain
5:51 AM 34.0 °F 26.0 °F 30.0 °F 85% 30.17 in 6.0 mi NE 10.4 mph - 0.11 in Rain Rain
6:51 AM 34.0 °F 26.0 °F 30.0 °F 85% 30.14 in 7.0 mi NE 10.4 mph - 0.12 in Rain Rain
7:51 AM 35.1 °F 27.9 °F 30.9 °F 85% 30.10 in 9.0 mi NE 9.2 mph - 0.14 in Rain Light Rain
8:51 AM 37.0 °F 30.4 °F 33.1 °F 86% 30.06 in 8.0 mi NE 9.2 mph - 0.08 in Rain Light Rain
9:51 AM 37.9 °F 30.9 °F 34.0 °F 86% 30.01 in 5.0 mi NNE 10.4 mph - 0.11 in Rain Rain
10:51 AM 39.0 °F 31.8 °F 34.0 °F 82% 29.96 in 5.0 mi NNE 11.5 mph 20.7 mph 0.07 in Rain Light Rain
11:51 AM 39.9 °F 33.9 °F 35.1 °F 83% 29.91 in 6.0 mi North 9.2 mph - 0.07 in Rain Rain
12:51 PM 42.1 °F 35.7 °F 37.0 °F 82% 29.87 in 8.0 mi North 11.5 mph - 0.04 in Rain Light Rain
1:51 PM 43.0 °F 38.8 °F 37.9 °F 82% 29.83 in 10.0 mi North 6.9 mph - 0.02 in Rain Light Rain
2:15 PM 44.6 °F 39.2 °F 39.2 °F 81% 29.81 in 10.0 mi NNW 10.4 mph - 0.00 in Rain Light Rain
2:47 PM 44.6 °F 40.2 °F 37.4 °F 76% 29.79 in 10.0 mi NNW 8.1 mph - 0.01 in   Overcast
2:51 PM 44.1 °F 39.0 °F 37.9 °F 79% 29.81 in 10.0 mi NNW 9.2 mph - 0.01 in   Overcast
3:51 PM 43.0 °F 37.2 °F 37.9 °F 82% 29.81 in 5.0 mi NNW 10.4 mph 16.1 mph 0.01 in Rain Light Rain
4:51 PM 43.0 °F 37.7 °F 37.0 °F 80% 29.79 in 10.0 mi NW 9.2 mph - 0.02 in Rain Light Rain
5:51 PM 42.1 °F 33.9 °F 35.1 °F 76% 29.79 in 10.0 mi NW 17.3 mph 23.0 mph 0.01 in   Overcast
6:51 PM 42.1 °F 37.7 °F 34.0 °F 73% 29.80 in 10.0 mi NNW 6.9 mph - N/A   Overcast
7:51 PM 41.0 °F 35.2 °F 34.0 °F 76% 29.80 in 10.0 mi NNW 9.2 mph - N/A   Overcast
8:51 PM 41.0 °F 34.3 °F 34.0 °F 76% 29.79 in 10.0 mi NNW 11.5 mph - 0.01 in   Overcast
9:51 PM 41.0 °F 35.8 °F 33.1 °F 73% 29.78 in 10.0 mi NW 8.1 mph 20.7 mph 0.00 in   Overcast
10:51 PM 41.0 °F 32.2 °F 32.0 °F 70% 29.78 in 10.0 mi NW 18.4 mph 26.5 mph 0.00 in Rain Light Rain
11:51 PM 41.0 °F 34.3 °F 32.0 °F 70% 29.77 in 10.0 mi NW 11.5 mph 18.4 mph 0.00 in Rain Light Rain